This is the latest recevied weather packets stored in our database for station/object KM4LTG. If no packets are shown the sender has not sent any weather packets the latest 1 day(s).
| Time | Temp. | Humidity | Pressure | Rain* | Wind** | Luminosity | Snow |
|---|---|---|---|---|---|---|---|
| 1778000140 | 27.78° C | 61% | 1017.2 hPa | 0 mm | 1.34 m/s, 135° | - | - |
| 1777999886 | 27.78° C | 61% | 1017.3 hPa | 0 mm | 1.34 m/s, 180° | - | - |
| 1777999640 | 27.78° C | 61% | 1017.3 hPa | 0 mm | 0.89 m/s, 112° | - | - |
| 1777999382 | 27.78° C | 60% | 1017.2 hPa | 0 mm | 1.79 m/s, 158° | - | - |
| 1777999096 | 27.22° C | 61% | 1017.3 hPa | 0 mm | 1.79 m/s, 180° | - | - |
| 1777998802 | 27.22° C | 62% | 1017.3 hPa | 0 mm | 1.34 m/s, 112° | - | - |
| 1777998530 | 27.78° C | 60% | 1017.3 hPa | 0 mm | 1.79 m/s, 90° | - | - |
| 1777998254 | 28.33° C | 60% | 1017.4 hPa | 0 mm | 0.89 m/s, 135° | - | - |
| 1777997991 | 27.78° C | 62% | 1017.3 hPa | 0 mm | 1.79 m/s, 112° | - | - |
| 1777997710 | 27.78° C | 62% | 1017.3 hPa | 0 mm | 0.89 m/s, 158° | - | - |
| 1777997430 | 27.78° C | 62% | 1017.3 hPa | 0 mm | 0.89 m/s, 158° | - | - |
| 1777997174 | 27.22° C | 62% | 1017.3 hPa | 0 mm | 1.34 m/s, 112° | - | - |
| 1777996895 | 27.22° C | 62% | 1017.4 hPa | 0 mm | 1.34 m/s, 112° | - | - |
| 1777996614 | 27.22° C | 62% | 1017.3 hPa | 0 mm | 1.34 m/s, 135° | - | - |
| 1777996321 | 27.22° C | 63% | 1017.3 hPa | 0 mm | 0.89 m/s, 135° | - | - |
| 1777996065 | 27.22° C | 62% | 1017.3 hPa | 0 mm | 1.34 m/s, 158° | - | - |
| 1777995774 | 26.67° C | 63% | 1017.4 hPa | 0 mm | 1.79 m/s, 112° | - | - |
| 1777995498 | 26.67° C | 64% | 1017.4 hPa | 0 mm | 1.79 m/s, 135° | - | - |
| 1777995238 | 26.11° C | 64% | 1017.4 hPa | 0 mm | 1.79 m/s, 135° | - | - |
| 1777994970 | 26.11° C | 65% | 1017.3 hPa | 0 mm | 1.34 m/s, 112° | - | - |
| 1777994680 | 26.11° C | 64% | 1017.3 hPa | 0 mm | 1.34 m/s, 112° | - | - |
| 1777994391 | 25.56° C | 65% | 1017.3 hPa | 0 mm | 1.79 m/s, 112° | - | - |
| 1777994105 | 26.11° C | 64% | 1017.3 hPa | 0 mm | 1.34 m/s, 112° | - | - |
| 1777993825 | 26.11° C | 64% | 1017.3 hPa | 0 mm | 1.34 m/s, 112° | - | - |
| 1777993575 | 26.11° C | 65% | 1017.2 hPa | 0 mm | 1.34 m/s, 90° | - | - |
* Rain latest hour (hover to see other rain measurements)
** Current wind speed in m/s (hover to see current wind gust speed)